KLM99C EGPH-EHAM

Flight info

Callsign KLM99C
Flight time N/A
Altitude 310000
Route TLA6C TLA Y96 NATEB P15 GIVEM DCT NAVEL DCT TIMUP L7 VENAS L74 TOPPA TOPPA2A
Aircraft B738/M-V/N

Departure

Time 2026-04-26 10:18
Airport Edinburgh Airport (EGPH)

Arrival

Time N/A
Airport Amsterdam Airport Schiphol (EHAM)
Time Latitude Longitude Altitude Speed Heading
2026-04-26 09:49 55.94884 -3.36551 112 ft 0 kts 148°
2026-04-26 10:09 55.94886 -3.36554 115 ft 2 kts 148°
2026-04-26 10:09 55.94901 -3.36573 111 ft 3 kts 138°
2026-04-26 10:09 55.94915 -3.36598 113 ft 3 kts 121°
2026-04-26 10:09 55.94923 -3.36630 112 ft 3 kts 96°
2026-04-26 10:10 55.94922 -3.36661 113 ft 2 kts 63°
2026-04-26 10:10 55.94920 -3.36670 111 ft 0 kts 58°
2026-04-26 10:13 55.94928 -3.36647 112 ft 6 kts 56°
2026-04-26 10:14 55.94951 -3.36584 114 ft 6 kts 60°
2026-04-26 10:14 55.94973 -3.36518 111 ft 7 kts 58°
2026-04-26 10:14 55.95004 -3.36429 115 ft 9 kts 56°
2026-04-26 10:14 55.95062 -3.36398 115 ft 9 kts 356°
2026-04-26 10:15 55.95116 -3.36336 112 ft 10 kts 57°
2026-04-26 10:15 55.95153 -3.36225 114 ft 11 kts 59°
2026-04-26 10:15 55.95196 -3.36096 114 ft 15 kts 59°
2026-04-26 10:15 55.95263 -3.35899 111 ft 22 kts 59°
2026-04-26 10:16 55.95332 -3.35696 114 ft 15 kts 59°
2026-04-26 10:16 55.95384 -3.35545 114 ft 14 kts 59°
2026-04-26 10:16 55.95437 -3.35409 114 ft 13 kts 29°
2026-04-26 10:16 55.95519 -3.35462 114 ft 13 kts 328°
2026-04-26 10:17 55.95564 -3.35584 112 ft 13 kts 251°
2026-04-26 10:17 55.95512 -3.35738 112 ft 19 kts 239°
2026-04-26 10:17 55.95327 -3.36285 109 ft 96 kts 239°
2026-04-26 10:17 55.94836 -3.37752 138 ft 175 kts 240°
2026-04-26 10:18 55.94155 -3.39788 852 ft 201 kts 239°
2026-04-26 10:18 55.93385 -3.42056 1652 ft 225 kts 237°
2026-04-26 10:18 55.92523 -3.44484 2551 ft 234 kts 236°
2026-04-26 10:18 55.91638 -3.46951 3281 ft 234 kts 238°
2026-04-26 10:19 55.90794 -3.49395 4073 ft 231 kts 238°
2026-04-26 10:19 55.89967 -3.51870 4728 ft 233 kts 240°
2026-04-26 10:19 55.89155 -3.54380 5363 ft 236 kts 240°
2026-04-26 10:19 55.88325 -3.56907 5887 ft 241 kts 236°
2026-04-26 10:20 55.87050 -3.58922 5947 ft 259 kts 204°
2026-04-26 10:20 55.85858 -3.59418 5959 ft 264 kts 182°
2026-04-26 10:20 55.83576 -3.57999 5992 ft 276 kts 140°
2026-04-26 10:20 55.82472 -3.55218 6020 ft 277 kts 120°
2026-04-26 10:21 55.81316 -3.52539 5979 ft 271 kts 148°
2026-04-26 10:21 55.79626 -3.51251 6014 ft 264 kts 167°
2026-04-26 10:21 55.77852 -3.50366 5989 ft 265 kts 166°
2026-04-26 10:21 55.76081 -3.49445 5988 ft 266 kts 166°
2026-04-26 10:22 55.74306 -3.48497 5975 ft 266 kts 166°
2026-04-26 10:22 55.72533 -3.47538 5967 ft 267 kts 165°
2026-04-26 10:22 55.70754 -3.46572 5966 ft 268 kts 165°
2026-04-26 10:22 55.68971 -3.45605 5957 ft 268 kts 165°
2026-04-26 10:23 55.67185 -3.44638 5965 ft 269 kts 165°
2026-04-26 10:23 55.65383 -3.43661 5955 ft 270 kts 165°
2026-04-26 10:23 55.63581 -3.42685 5942 ft 270 kts 165°
2026-04-26 10:23 55.61790 -3.41714 5946 ft 269 kts 165°
2026-04-26 10:24 55.59997 -3.40745 5949 ft 269 kts 165°
2026-04-26 10:24 55.58208 -3.39777 5952 ft 269 kts 165°
2026-04-26 10:24 55.56418 -3.38811 5951 ft 269 kts 165°
2026-04-26 10:24 55.54623 -3.37843 5961 ft 270 kts 165°
2026-04-26 10:25 55.52823 -3.36873 5951 ft 270 kts 165°
2026-04-26 10:25 55.51639 -3.36185 5936 ft 271 kts 159°
2026-04-26 10:25 55.49848 -3.33222 6038 ft 275 kts 118°
2026-04-26 10:25 55.49246 -3.29992 6647 ft 281 kts 104°
2026-04-26 10:26 55.48876 -3.26578 7495 ft 284 kts 101°
2026-04-26 10:26 55.48545 -3.23123 8304 ft 289 kts 102°
2026-04-26 10:26 55.48203 -3.19598 9063 ft 295 kts 102°
2026-04-26 10:26 55.47843 -3.16011 9891 ft 299 kts 102°
2026-04-26 10:27 55.47468 -3.12385 10632 ft 305 kts 102°
2026-04-26 10:27 55.47068 -3.08616 10850 ft 329 kts 103°
2026-04-26 10:27 55.46625 -3.04513 11042 ft 353 kts 103°
2026-04-26 10:27 55.46090 -3.00163 11266 ft 372 kts 109°
2026-04-26 10:28 55.45066 -2.95948 11801 ft 378 kts 121°
2026-04-26 10:28 55.43759 -2.91901 12534 ft 381 kts 122°
2026-04-26 10:28 55.42430 -2.87846 13278 ft 385 kts 122°
2026-04-26 10:28 55.41092 -2.83729 13997 ft 389 kts 122°
2026-04-26 10:29 55.39751 -2.79549 14614 ft 394 kts 122°
2026-04-26 10:29 55.38404 -2.75320 15212 ft 398 kts 121°
2026-04-26 10:29 55.37043 -2.71042 15791 ft 403 kts 121°
2026-04-26 10:29 55.35660 -2.66713 16387 ft 407 kts 122°
2026-04-26 10:30 55.34260 -2.62358 16977 ft 412 kts 122°
2026-04-26 10:30 55.32839 -2.57956 17566 ft 416 kts 122°
2026-04-26 10:30 55.31402 -2.53506 18147 ft 421 kts 122°
2026-04-26 10:30 55.29948 -2.49009 18689 ft 425 kts 122°
2026-04-26 10:31 55.28479 -2.44477 19193 ft 429 kts 122°
2026-04-26 10:31 55.27016 -2.39974 19707 ft 432 kts 122°
2026-04-26 10:31 55.25520 -2.35388 20219 ft 435 kts 122°
2026-04-26 10:31 55.24007 -2.30764 20698 ft 438 kts 122°
2026-04-26 10:32 55.23005 -2.27704 21059 ft 439 kts 122°
2026-04-26 10:32 55.22305 -2.25567 21296 ft 441 kts 122°
2026-04-26 10:32 55.21569 -2.23322 21527 ft 442 kts 122°
2026-04-26 10:32 55.21186 -2.22153 21642 ft 443 kts 122°
2026-04-26 10:33 55.20719 -2.20731 21770 ft 445 kts 122°
2026-04-26 10:33 55.20333 -2.19557 21880 ft 446 kts 122°
2026-04-26 10:33 55.19946 -2.18379 21982 ft 447 kts 122°
2026-04-26 10:33 55.19558 -2.17198 22080 ft 448 kts 122°
2026-04-26 10:34 55.18977 -2.15431 22245 ft 450 kts 122°
2026-04-26 10:34 55.18620 -2.14345 22342 ft 451 kts 122°
2026-04-26 10:34 55.18230 -2.13159 22452 ft 451 kts 122°
2026-04-26 10:34 55.17837 -2.11966 22579 ft 452 kts 122°
2026-04-26 10:35 55.17443 -2.10772 22702 ft 453 kts 122°
2026-04-26 10:35 55.17054 -2.09591 22821 ft 453 kts 122°
2026-04-26 10:35 55.16660 -2.08395 22939 ft 454 kts 122°
2026-04-26 10:35 55.16265 -2.07197 23061 ft 455 kts 122°
2026-04-26 10:36 55.15921 -2.06153 23160 ft 456 kts 122°
2026-04-26 10:36 55.15525 -2.04952 23267 ft 456 kts 122°
2026-04-26 10:36 55.15128 -2.03749 23378 ft 457 kts 122°
2026-04-26 10:36 55.14729 -2.02543 23480 ft 458 kts 122°
2026-04-26 10:37 55.14331 -2.01337 23583 ft 459 kts 122°
2026-04-26 10:37 55.13931 -2.00127 23688 ft 460 kts 122°
2026-04-26 10:37 55.13687 -1.99390 23751 ft 461 kts 122°
2026-04-26 10:37 55.13149 -1.97766 23884 ft 462 kts 122°
2026-04-26 10:38 55.12882 -1.96961 23950 ft 462 kts 122°
2026-04-26 10:38 55.12478 -1.95744 24036 ft 463 kts 122°
2026-04-26 10:38 55.12075 -1.94528 24128 ft 464 kts 122°
2026-04-26 10:38 55.11669 -1.93306 24219 ft 464 kts 122°
2026-04-26 10:39 55.11262 -1.92084 24307 ft 465 kts 122°
2026-04-26 10:39 55.10855 -1.90864 24398 ft 466 kts 122°
2026-04-26 10:39 55.10447 -1.89640 24489 ft 466 kts 122°
2026-04-26 10:39 55.10038 -1.88417 24581 ft 467 kts 122°
2026-04-26 10:40 55.09628 -1.87189 24682 ft 467 kts 122°
2026-04-26 10:40 55.09219 -1.85964 24770 ft 468 kts 122°
2026-04-26 10:40 55.08750 -1.84560 24872 ft 469 kts 122°
2026-04-26 10:40 55.08337 -1.83328 24957 ft 470 kts 122°
2026-04-26 10:41 55.07925 -1.82096 25036 ft 470 kts 122°
2026-04-26 10:41 55.07511 -1.80862 25122 ft 471 kts 122°
2026-04-26 10:41 55.07098 -1.79628 25204 ft 472 kts 122°
2026-04-26 10:41 55.06682 -1.78386 25287 ft 473 kts 122°
2026-04-26 10:42 55.06281 -1.77135 25367 ft 474 kts 119°
2026-04-26 10:42 55.05862 -1.75641 25452 ft 476 kts 114°
2026-04-26 10:42 55.05561 -1.74294 25523 ft 478 kts 109°
2026-04-26 10:42 55.05329 -1.72896 25601 ft 480 kts 103°
2026-04-26 10:43 55.05166 -1.71471 25684 ft 481 kts 98°
2026-04-26 10:43 55.05065 -1.70019 25775 ft 481 kts 95°
2026-04-26 10:43 55.05018 -1.68562 25872 ft 482 kts 91°
2026-04-26 10:43 55.05022 -1.67101 25968 ft 482 kts 87°
2026-04-26 10:44 55.05098 -1.65284 26080 ft 482 kts 82°
2026-04-26 10:44 55.05222 -1.63840 26164 ft 483 kts 77°
2026-04-26 10:44 55.05409 -1.62411 26251 ft 482 kts 73°
2026-04-26 10:44 55.05653 -1.61012 26347 ft 482 kts 69°
2026-04-26 10:45 55.05940 -1.59640 26461 ft 481 kts 67°
2026-04-26 10:45 55.06247 -1.58281 26570 ft 481 kts 66°
2026-04-26 10:45 55.06561 -1.56927 26664 ft 481 kts 66°
2026-04-26 10:45 55.06879 -1.55577 26749 ft 482 kts 66°
2026-04-26 10:46 55.07199 -1.54227 26820 ft 482 kts 66°
2026-04-26 10:46 55.07523 -1.52876 26889 ft 483 kts 65°
2026-04-26 10:46 55.07848 -1.51521 26951 ft 484 kts 65°
2026-04-26 10:46 55.08176 -1.50161 27013 ft 485 kts 65°
2026-04-26 10:47 55.08502 -1.48803 27065 ft 486 kts 65°
2026-04-26 10:47 55.08830 -1.47441 27135 ft 487 kts 65°
2026-04-26 10:47 55.09156 -1.46077 27205 ft 488 kts 66°
2026-04-26 10:47 55.09482 -1.44708 27285 ft 488 kts 66°
2026-04-26 10:48 55.09807 -1.43337 27360 ft 489 kts 66°
2026-04-26 10:48 55.10131 -1.41964 27444 ft 489 kts 66°
2026-04-26 10:48 55.10449 -1.40608 27522 ft 489 kts 66°
2026-04-26 10:48 55.10770 -1.39232 27613 ft 490 kts 66°
2026-04-26 10:49 55.11091 -1.37851 27698 ft 490 kts 66°
2026-04-26 10:49 55.11411 -1.36467 27775 ft 491 kts 66°
2026-04-26 10:49 55.11729 -1.35081 27852 ft 491 kts 66°
2026-04-26 10:49 55.12047 -1.33695 27923 ft 492 kts 66°
2026-04-26 10:50 55.12363 -1.32306 27994 ft 492 kts 66°
2026-04-26 10:50 55.12573 -1.31385 28049 ft 493 kts 66°
2026-04-26 10:50 55.13312 -1.28123 28191 ft 494 kts 67°
2026-04-26 10:51 55.14259 -1.23922 28402 ft 496 kts 67°
2026-04-26 10:52 55.15222 -1.19630 28609 ft 498 kts 67°
2026-04-26 10:52 55.15856 -1.16807 28768 ft 498 kts 67°
2026-04-26 10:52 55.16489 -1.13984 28961 ft 498 kts 67°
2026-04-26 10:52 55.17113 -1.11199 29162 ft 498 kts 67°
2026-04-26 10:53 55.17744 -1.08386 29404 ft 496 kts 67°
2026-04-26 10:53 55.18372 -1.05581 29706 ft 494 kts 67°
2026-04-26 10:53 55.18993 -1.02795 29995 ft 492 kts 67°
2026-04-26 10:54 55.20195 -0.97372 30411 ft 491 kts 67°
2026-04-26 10:54 55.20810 -0.94586 30535 ft 491 kts 67°
2026-04-26 10:54 55.21427 -0.91787 30649 ft 492 kts 67°
2026-04-26 10:54 55.22043 -0.88989 30768 ft 493 kts 67°
2026-04-26 10:55 55.22659 -0.86180 30911 ft 493 kts 67°
2026-04-26 10:55 55.23275 -0.83372 31080 ft 493 kts 67°
2026-04-26 10:55 55.23888 -0.80574 31250 ft 492 kts 67°
2026-04-26 10:55 55.24494 -0.77805 31323 ft 494 kts 67°
2026-04-26 10:56 55.25726 -0.72169 31340 ft 495 kts 68°
2026-04-26 10:56 55.26957 -0.66529 31351 ft 493 kts 68°
2026-04-26 10:57 55.28175 -0.60930 31355 ft 490 kts 68°
2026-04-26 10:57 55.29386 -0.55350 31345 ft 489 kts 68°
2026-04-26 10:58 55.30596 -0.49778 31352 ft 488 kts 68°
2026-04-26 10:58 55.31805 -0.44204 31338 ft 488 kts 68°
2026-04-26 10:59 55.33011 -0.38634 31353 ft 488 kts 68°
2026-04-26 10:59 55.34214 -0.33057 31342 ft 488 kts 68°
2026-04-26 11:00 55.35415 -0.27479 31353 ft 488 kts 68°
2026-04-26 11:00 55.36605 -0.21932 31349 ft 488 kts 68°
2026-04-26 11:01 55.37801 -0.16341 31350 ft 489 kts 68°
2026-04-26 11:01 55.38996 -0.10739 31351 ft 489 kts 68°
2026-04-26 11:02 55.40189 -0.05129 31352 ft 490 kts 68°
2026-04-26 11:02 55.41350 0.00341 31354 ft 490 kts 68°
2026-04-26 11:03 55.42540 0.05966 31353 ft 490 kts 68°
2026-04-26 11:03 55.43726 0.11588 31354 ft 490 kts 68°
2026-04-26 11:04 55.44912 0.17218 31338 ft 490 kts 68°
2026-04-26 11:04 55.46096 0.22860 31359 ft 490 kts 68°
2026-04-26 11:05 55.47243 0.28345 31341 ft 491 kts 69°
2026-04-26 11:05 55.48405 0.33934 31361 ft 490 kts 69°
2026-04-26 11:06 55.49375 0.38624 31343 ft 491 kts 69°
2026-04-26 11:06 55.50734 0.45205 31363 ft 490 kts 69°
2026-04-26 11:07 55.51900 0.50867 31354 ft 490 kts 69°
2026-04-26 11:07 55.53062 0.56525 31367 ft 490 kts 69°
2026-04-26 11:08 55.54222 0.62188 31363 ft 490 kts 69°
2026-04-26 11:08 55.55381 0.67853 31363 ft 490 kts 69°
2026-04-26 11:09 55.56528 0.73484 31355 ft 490 kts 69°
2026-04-26 11:09 55.57592 0.79219 31352 ft 491 kts 75°
2026-04-26 11:10 55.58166 0.85169 31362 ft 491 kts 84°
2026-04-26 11:10 55.58251 0.91205 31365 ft 491 kts 94°
2026-04-26 11:11 55.57858 0.97190 31373 ft 491 kts 98°
2026-04-26 11:11 55.57381 1.03015 31373 ft 491 kts 99°
2026-04-26 11:12 55.56879 1.08988 31366 ft 491 kts 99°
2026-04-26 11:12 55.56385 1.14923 31365 ft 491 kts 98°
2026-04-26 11:13 55.55899 1.20904 31366 ft 491 kts 98°
2026-04-26 11:13 55.55419 1.26920 31366 ft 492 kts 98°
2026-04-26 11:14 55.54950 1.32864 31374 ft 492 kts 98°
2026-04-26 11:14 55.54555 1.37881 31371 ft 492 kts 98°
2026-04-26 11:15 55.54005 1.44839 31367 ft 492 kts 98°
2026-04-26 11:15 55.53528 1.50834 31376 ft 493 kts 98°
2026-04-26 11:16 55.53048 1.56825 31377 ft 493 kts 98°
2026-04-26 11:16 55.52565 1.62813 31373 ft 493 kts 98°
2026-04-26 11:17 55.52080 1.68768 31382 ft 493 kts 98°
2026-04-26 11:17 55.51590 1.74754 31375 ft 493 kts 98°
2026-04-26 11:18 55.51096 1.80749 31382 ft 493 kts 98°
2026-04-26 11:18 55.50599 1.86741 31375 ft 493 kts 98°
2026-04-26 11:19 55.50099 1.92730 31372 ft 493 kts 98°
2026-04-26 11:19 55.49596 1.98723 31377 ft 493 kts 98°
2026-04-26 11:20 55.49189 2.03545 31388 ft 494 kts 99°
2026-04-26 11:20 55.48594 2.10551 31372 ft 494 kts 99°
2026-04-26 11:21 55.48083 2.16537 31388 ft 494 kts 99°
2026-04-26 11:21 55.47655 2.21514 31382 ft 494 kts 99°
2026-04-26 11:22 55.47053 2.28475 31387 ft 494 kts 99°
2026-04-26 11:22 55.46533 2.34460 31375 ft 494 kts 99°
2026-04-26 11:23 55.46098 2.39435 31386 ft 494 kts 99°
2026-04-26 11:23 55.45573 2.45411 31390 ft 493 kts 99°
2026-04-26 11:24 55.45045 2.51382 31393 ft 493 kts 99°
2026-04-26 11:24 55.44514 2.57361 31388 ft 493 kts 99°
2026-04-26 11:25 55.43982 2.63322 31384 ft 493 kts 99°
2026-04-26 11:25 55.43445 2.69294 31393 ft 493 kts 99°
2026-04-26 11:26 55.42601 2.75120 31381 ft 491 kts 115°
2026-04-26 11:26 55.41546 2.78512 31388 ft 488 kts 126°
2026-04-26 11:26 55.40519 2.80892 31407 ft 486 kts 133°
2026-04-26 11:27 55.38050 2.84898 31386 ft 481 kts 148°
2026-04-26 11:27 55.35170 2.87837 31398 ft 478 kts 155°
2026-04-26 11:28 55.32230 2.90488 31387 ft 478 kts 156°
2026-04-26 11:28 55.29251 2.93120 31386 ft 479 kts 156°
2026-04-26 11:29 55.26280 2.95761 31384 ft 479 kts 156°
2026-04-26 11:29 55.23308 2.98438 31390 ft 480 kts 155°
2026-04-26 11:30 55.20905 3.00626 31383 ft 480 kts 155°
2026-04-26 11:30 55.17467 3.03775 31388 ft 480 kts 155°
2026-04-26 11:31 55.14508 3.06492 31388 ft 480 kts 155°
2026-04-26 11:31 55.11549 3.09207 31389 ft 480 kts 155°
2026-04-26 11:32 55.08587 3.11917 31389 ft 480 kts 155°
2026-04-26 11:32 55.05624 3.14623 31387 ft 480 kts 155°
2026-04-26 11:33 55.02661 3.17322 31389 ft 480 kts 155°
2026-04-26 11:33 54.99701 3.20014 31388 ft 480 kts 155°
2026-04-26 11:34 54.96491 3.22912 31379 ft 479 kts 156°
2026-04-26 11:34 54.93199 3.25385 31392 ft 476 kts 162°
2026-04-26 11:35 54.90092 3.27375 31384 ft 476 kts 163°
2026-04-26 11:35 54.86975 3.29294 31391 ft 476 kts 163°
2026-04-26 11:36 54.83856 3.31222 31391 ft 476 kts 163°
2026-04-26 11:36 54.80739 3.33182 31391 ft 476 kts 163°
2026-04-26 11:37 54.77629 3.35169 31391 ft 477 kts 163°
2026-04-26 11:37 54.74539 3.37158 31391 ft 477 kts 163°
2026-04-26 11:38 54.71425 3.39167 31391 ft 477 kts 163°
2026-04-26 11:38 54.68312 3.41170 31382 ft 477 kts 163°
2026-04-26 11:39 54.65199 3.43165 31388 ft 477 kts 163°
2026-04-26 11:39 54.62082 3.45157 31391 ft 477 kts 163°
2026-04-26 11:40 54.58966 3.47145 31391 ft 477 kts 163°
2026-04-26 11:40 54.55852 3.49130 31391 ft 477 kts 163°
2026-04-26 11:42 54.43400 3.57043 31374 ft 477 kts 163°
2026-04-26 11:43 54.40281 3.59018 31383 ft 477 kts 163°
2026-04-26 11:43 54.37163 3.61006 31389 ft 478 kts 163°
2026-04-26 11:44 54.34042 3.62951 31388 ft 476 kts 166°
2026-04-26 11:44 54.30826 3.64208 31394 ft 471 kts 176°
2026-04-26 11:45 54.27591 3.64612 31389 ft 467 kts 184°
2026-04-26 11:45 54.24369 3.64170 31400 ft 462 kts 192°
2026-04-26 11:46 54.21176 3.63426 31391 ft 463 kts 191°
2026-04-26 11:46 54.17978 3.62744 31373 ft 463 kts 191°
2026-04-26 11:47 54.14771 3.62108 31382 ft 464 kts 190°
2026-04-26 11:47 54.11566 3.61483 31386 ft 464 kts 190°
2026-04-26 11:48 54.08354 3.60861 31387 ft 464 kts 190°
2026-04-26 11:48 54.05142 3.60239 31388 ft 464 kts 190°
2026-04-26 11:49 54.01929 3.59615 31388 ft 465 kts 190°
2026-04-26 11:49 53.98719 3.58991 31389 ft 465 kts 190°
2026-04-26 11:50 53.95501 3.58366 31386 ft 465 kts 190°
2026-04-26 11:50 53.92308 3.57746 31374 ft 465 kts 190°
2026-04-26 11:51 53.89089 3.57122 31381 ft 465 kts 191°
2026-04-26 11:51 53.83574 3.56054 31387 ft 465 kts 191°
2026-04-26 11:52 53.80245 3.55411 31388 ft 466 kts 190°
2026-04-26 11:52 53.77351 3.54853 31385 ft 466 kts 190°
2026-04-26 11:53 53.75741 3.54543 31387 ft 466 kts 190°
2026-04-26 11:54 53.73326 3.54079 31388 ft 466 kts 190°
2026-04-26 11:54 53.71715 3.53769 31388 ft 466 kts 190°
2026-04-26 11:55 53.70113 3.53461 31388 ft 466 kts 190°
2026-04-26 11:55 53.68766 3.53202 31373 ft 466 kts 190°
2026-04-26 11:56 53.67749 3.53007 31364 ft 466 kts 190°
2026-04-26 11:56 53.65097 3.52499 31372 ft 466 kts 190°
2026-04-26 11:57 53.61875 3.51901 31380 ft 467 kts 188°
2026-04-26 11:57 53.58615 3.51821 31380 ft 472 kts 179°
2026-04-26 11:58 53.55344 3.52521 31393 ft 474 kts 175°
2026-04-26 11:58 53.52077 3.53352 31395 ft 475 kts 175°
2026-04-26 11:59 53.48807 3.54171 31384 ft 475 kts 175°
2026-04-26 11:59 53.45546 3.55208 31254 ft 480 kts 170°
2026-04-26 11:59 53.43939 3.55875 31133 ft 481 kts 169°
2026-04-26 12:00 53.42404 3.56562 31032 ft 480 kts 168°
2026-04-26 12:00 53.40229 3.57587 30856 ft 479 kts 167°
2026-04-26 12:00 53.38941 3.58208 30740 ft 479 kts 167°
2026-04-26 12:01 53.38139 3.58595 30587 ft 480 kts 167°
2026-04-26 12:01 53.37337 3.58984 30455 ft 481 kts 167°
2026-04-26 12:01 53.36533 3.59373 30360 ft 480 kts 167°
2026-04-26 12:01 53.35729 3.59762 30179 ft 480 kts 167°
2026-04-26 12:02 53.34926 3.60148 30038 ft 480 kts 167°
2026-04-26 12:02 53.33320 3.60915 29768 ft 480 kts 167°
2026-04-26 12:02 53.32516 3.61296 29607 ft 480 kts 167°
2026-04-26 12:03 53.31714 3.61674 29495 ft 479 kts 167°
2026-04-26 12:03 53.30911 3.62051 29352 ft 479 kts 167°
2026-04-26 12:03 53.30119 3.62420 29199 ft 479 kts 167°
2026-04-26 12:03 53.29315 3.62793 29074 ft 479 kts 168°
2026-04-26 12:04 53.28513 3.63163 28946 ft 478 kts 168°
2026-04-26 12:04 53.27710 3.63532 28797 ft 479 kts 168°
2026-04-26 12:04 53.26908 3.63898 28663 ft 478 kts 168°
2026-04-26 12:04 53.26106 3.64264 28533 ft 477 kts 168°
2026-04-26 12:05 53.25306 3.64627 28392 ft 475 kts 168°
2026-04-26 12:05 53.24512 3.64987 28253 ft 472 kts 168°
2026-04-26 12:05 53.23721 3.65345 28124 ft 470 kts 168°
2026-04-26 12:05 53.22931 3.65701 27990 ft 469 kts 168°
2026-04-26 12:06 53.22410 3.65935 27898 ft 467 kts 168°
2026-04-26 12:06 53.21626 3.66288 27766 ft 466 kts 168°
2026-04-26 12:06 53.20847 3.66638 27641 ft 464 kts 168°
2026-04-26 12:06 53.20068 3.66987 27498 ft 462 kts 168°
2026-04-26 12:07 53.18930 3.67496 27299 ft 460 kts 168°
2026-04-26 12:07 53.17555 3.68111 27063 ft 457 kts 168°
2026-04-26 12:07 53.16789 3.68453 26939 ft 455 kts 168°
2026-04-26 12:07 53.16061 3.68778 26817 ft 453 kts 168°
2026-04-26 12:08 53.14964 3.69267 26634 ft 451 kts 168°
2026-04-26 12:08 53.14207 3.69604 26508 ft 450 kts 168°
2026-04-26 12:08 53.13452 3.69941 26378 ft 448 kts 168°
2026-04-26 12:08 53.12697 3.70277 26254 ft 447 kts 168°
2026-04-26 12:09 53.11949 3.70610 26133 ft 445 kts 168°
2026-04-26 12:09 53.11209 3.70940 26007 ft 444 kts 168°
2026-04-26 12:09 53.10462 3.71272 25887 ft 443 kts 168°
2026-04-26 12:09 53.09718 3.71603 25764 ft 441 kts 168°
2026-04-26 12:10 53.08978 3.71932 25634 ft 440 kts 168°
2026-04-26 12:10 53.08237 3.72262 25517 ft 439 kts 168°
2026-04-26 12:10 53.07501 3.72590 25390 ft 437 kts 168°
2026-04-26 12:10 53.06765 3.72917 25275 ft 436 kts 168°
2026-04-26 12:11 53.06032 3.73243 25152 ft 435 kts 168°
2026-04-26 12:11 53.05302 3.73567 25033 ft 434 kts 168°
2026-04-26 12:11 53.04574 3.73890 24921 ft 433 kts 168°